QPF
0.00 0.00 0.01 0.01 0.01 0.03 0.01 0.00 0.00 0.00 0.00 0.00 0.00 0.00 0.00 0.00 0.00 0.00 0.00 0.00 0.00 0.00 0.00 0.00 0.00 0.00 0.00 0.00 0.00 0.00 0.00 0.00 0.00 0.00 0.00 0.00 0.00 0.00 0.00 0.00 0.00 0.00 0.00
0.00 0.00 0.02 0.01 0.00 0.00 0.00 0.00 0.00 0.00 0.00 0.00 0.00 0.00 0.00 0.00 0.00 0.00 0.00 0.00 0.00 0.00 0.00 0.02 0.00 0.00 0.00 0.00 0.00 0.00 0.00 0.00 0.00 0.00 0.00 0.00 0.00 0.00 0.00 0.00 0.00 0.00 0.00
0.00 0.00 0.00 0.01 0.00 0.00 0.00 0.00 0.00 0.00 0.01 0.00 0.00 0.00 0.00 0.01 0.01 0.01 0.00 0.00 0.00 0.00 0.00 0.00 0.01 0.00 0.00 0.00 0.00 0.00 0.00 0.00 0.00 0.00 0.00 0.00 0.00 0.00 0.00 0.00 0.00 0.00 0.00
0.00 0.01 0.00 0.01 0.02 0.03 0.01 0.01 0.01 0.01 0.00 0.00 0.00 0.01 0.01 0.01 0.01 0.02 0.02 0.02 0.01 0.00 0.00 0.00 0.00 0.00 0.00 0.00 0.00 0.00 0.00 0.00 0.00 0.00 0.00 0.00 0.00 0.00 0.00 0.00 0.00 0.00 0.00
0.01 0.01 0.00 0.01 0.00 0.00 0.00 0.00 0.00 0.00 0.00 0.00 0.00 0.00 0.00 0.00 0.00 0.00 0.00 0.00 0.00 0.00 0.01 0.02 0.02 0.01 0.00 0.00 0.00 0.00 0.00 0.00 0.00 0.00 0.00 0.00 0.00 0.00 0.00 0.00 0.00 0.00 0.00
0.00 0.00 0.00 0.00 0.00 0.00 0.00 0.00 0.00 0.00 0.00 0.00 0.00 0.00 0.00 0.00 0.00 0.00 0.00 0.00 0.00 0.00 0.00 0.00 0.01 0.02 0.03 0.02 0.00 0.00 0.01 0.02 0.00 0.00 0.00 0.00 0.00 0.00 0.00 0.00 0.00 0.02 0.00
0.00 0.00 0.00 0.00 0.00 0.00 0.00 0.00 0.00 0.00 0.00 0.00 0.00 0.00 0.00 0.00 0.00 0.00 0.00 0.00 0.00 0.00 0.00 0.00 0.00 0.00 0.00 0.01 0.01 0.01 0.03 0.02 0.00 0.00 0.00 0.00 0.00 0.00 0.00 0.00 0.00 0.00 0.02
0.00 0.00 0.00 0.00 0.00 0.00 0.00 0.00 0.00 0.00 0.00 0.00 0.00 0.00 0.00 0.00 0.00 0.00 0.00 0.00 0.00 0.00 0.00 0.00 0.00 0.00 0.00 0.00 0.00 0.00 0.01 0.00 0.00 0.00 0.00 0.00 0.00 0.00 0.00 0.00 0.00 0.00 0.00
0.00 0.00 0.00 0.00 0.00 0.00 0.00 0.00 0.00 0.00 0.00 0.00 0.00 0.00 0.00 0.00 0.00 0.00 0.00 0.00 0.00 0.00 0.00 0.00 0.00 0.00 0.00 0.00 0.00 0.00 0.00 0.00 0.00 0.00 0.00 0.00 0.00 0.00 0.00 0.00 0.00 0.00 0.00
0.00 0.00 0.00 0.00 0.00 0.00 0.00 0.00 0.00 0.00 0.00 0.00 0.00 0.00 0.00 0.00 0.00 0.00 0.00 0.00 0.00 0.00 0.00 0.00 0.00 0.00 0.00 0.00 0.00 0.00 0.00 0.00 0.00 0.00 0.00 0.01 0.01 0.02 0.01 0.04 0.05 0.03 0.03
0.00 0.00 0.00 0.00 0.00 0.00 0.00 0.00 0.00 0.00 0.00 0.00 0.00 0.00 0.00 0.00 0.00 0.00 0.00 0.00 0.00 0.00 0.00 0.00 0.00 0.00 0.00 0.00 0.00 0.00 0.00 0.00 0.00 0.00 0.00 0.02 0.04 0.04 0.01 0.03 0.04 0.04 0.04
0.00 0.00 0.00 0.00 0.00 0.00 0.00 0.00 0.00 0.00 0.00 0.00 0.00 0.00 0.00 0.00 0.00 0.00 0.00 0.00 0.00 0.00 0.00 0.00 0.00 0.00 0.00 0.00 0.00 0.00 0.00 0.00 0.00 0.00 0.00 0.01 0.01 0.00 0.00 0.01 0.01 0.02 0.02
0.00 0.00 0.00 0.00 0.00 0.00 0.00 0.00 0.00 0.00 0.00 0.00 0.00 0.00 0.00 0.00 0.00 0.00 0.00 0.00 0.00 0.00 0.00 0.00 0.00 0.00 0.00 0.00 0.00 0.00 0.00 0.00 0.00 0.00 0.00 0.00 0.00 0.00 0.00 0.01 0.01 0.00 0.00
0.00 0.00 0.00 0.00 0.00 0.00 0.00 0.00 0.00 0.00 0.00 0.00 0.00 0.00 0.00 0.00 0.00 0.00 0.00 0.00 0.00 0.00 0.00 0.00 0.00 0.00 0.00 0.00 0.00 0.00 0.00 0.00 0.00 0.00 0.00 0.00 0.00 0.00 0.00 0.00 0.00 0.00 0.00
0.00 0.00 0.00 0.00 0.00 0.00 0.00 0.00 0.00 0.00 0.00 0.00 0.00 0.00 0.00 0.00 0.00 0.00 0.00 0.00 0.00 0.00 0.00 0.00 0.00 0.00 0.00 0.00 0.00 0.00 0.00 0.00 0.00 0.00 0.00 0.00 0.00 0.00 0.00 0.00 0.00 0.00 0.00
0.00 0.00 0.00 0.00 0.00 0.00 0.00 0.00 0.00 0.00 0.00 0.00 0.00 0.00 0.00 0.00 0.00 0.00 0.00 0.00 0.00 0.00 0.00 0.00 0.00 0.00 0.00 0.00 0.00 0.00 0.00 0.00 0.00 0.00 0.00 0.00 0.00 0.00 0.00 0.00 0.00 0.00 0.00
0.00 0.00 0.00 0.00 0.00 0.00 0.00 0.00 0.00 0.00 0.00 0.00 0.00 0.00 0.00 0.00 0.00 0.00 0.00 0.00 0.00 0.00 0.00 0.00 0.00 0.00 0.00 0.00 0.00 0.00 0.00 0.00 0.00 0.00 0.00 0.00 0.00 0.00 0.00 0.00 0.00 0.00 0.00
0.00 0.00 0.00 0.00 0.00 0.00 0.00 0.00 0.00 0.00 0.00 0.00 0.00 0.00 0.00 0.00 0.00 0.00 0.00 0.00 0.00 0.00 0.00 0.00 0.00 0.00 0.00 0.00 0.00 0.00 0.00 0.00 0.00 0.00 0.00 0.00 0.00 0.00 0.00 0.00 0.00 0.00 0.00
0.00 0.00 0.00 0.00 0.00 0.00 0.00 0.00 0.00 0.00 0.00 0.00 0.00 0.00 0.00 0.00 0.00 0.00 0.00 0.00 0.00 0.00 0.00 0.00 0.00 0.00 0.00 0.00 0.00 0.00 0.00 0.00 0.00 0.00 0.00 0.00 0.00 0.00 0.00 0.00 0.00 0.00 0.00
0.00 0.00 0.00 0.00 0.00 0.00 0.00 0.00 0.00 0.00 0.00 0.00 0.00 0.00 0.00 0.00 0.00 0.00 0.00 0.00 0.00 0.00 0.00 0.00 0.00 0.00 0.00 0.00 0.00 0.00 0.00 0.00 0.00 0.00 0.00 0.00 0.00 0.00 0.00 0.00 0.00 0.00 0.00
0.00 0.00 0.00 0.00 0.00 0.00 0.00 0.00 0.00 0.00 0.00 0.00 0.00 0.00 0.00 0.00 0.00 0.00 0.00 0.00 0.00 0.00 0.00 0.00 0.00 0.00 0.00 0.00 0.00 0.00 0.00 0.00 0.00 0.00 0.00 0.00 0.00 0.00 0.00 0.00 0.00 0.00 0.00
0.00 0.00 0.00 0.00 0.00 0.00 0.00 0.00 0.00 0.00 0.00 0.00 0.00 0.00 0.00 0.00 0.00 0.00 0.00 0.00 0.00 0.00 0.00 0.00 0.00 0.00 0.00 0.00 0.00 0.00 0.00 0.00 0.00 0.00 0.00 0.00 0.00 0.00 0.00 0.00 0.00 0.00 0.00
0.00 0.00 0.00 0.00 0.00 0.00 0.00 0.00 0.00 0.00 0.00 0.00 0.00 0.00 0.00 0.00 0.00 0.00 0.00 0.00 0.00 0.00 0.00 0.00 0.00 0.00 0.00 0.00 0.00 0.00 0.00 0.00 0.00 0.00 0.00 0.00 0.00 0.00 0.00 0.00 0.00 0.00 0.00
0.00 0.00 0.00 0.00 0.00 0.00 0.00 0.00 0.00 0.00 0.00 0.00 0.00 0.00 0.00 0.00 0.00 0.00 0.00 0.00 0.00 0.00 0.00 0.00 0.00 0.00 0.00 0.00 0.00 0.00 0.00 0.00 0.00 0.00 0.00 0.00 0.00 0.00 0.00 0.00 0.00 0.00 0.00
0.00 0.00 0.00 0.00 0.00 0.00 0.00 0.00 0.00 0.00 0.00 0.00 0.00 0.00 0.00 0.00 0.00 0.00 0.00 0.00 0.00 0.00 0.00 0.00 0.00 0.00 0.00 0.00 0.00 0.00 0.00 0.00 0.00 0.00 0.00 0.00 0.00 0.00 0.00 0.00 0.00 0.00 0.00
0.00 0.00 0.00 0.00 0.00 0.00 0.00 0.00 0.00 0.00 0.00 0.00 0.00 0.00 0.00 0.00 0.00 0.00 0.00 0.00 0.00 0.00 0.00 0.00 0.00 0.00 0.00 0.00 0.00 0.00 0.00 0.00 0.00 0.00 0.00 0.00 0.00 0.00 0.00 0.00 0.00 0.00 0.00
MSLP
1013.33 1014.61 1015.36 1015.62 1015.85 1016.04 1016.14 1016.24 1016.38 1016.46 1016.52 1016.59 1016.63 1016.62 1016.61 1016.58 1016.56 1016.53 1016.49 1016.46 1016.38 1016.26 1016.12 1016.02 1015.99 1015.99 1015.95 1015.95 1015.94 1015.93 1015.89 1015.86 1015.85 1015.86 1015.86 1015.82 1015.73 1015.63 1015.64 1015.62 1015.44 1014.84 1015.40
1013.15 1014.42 1015.52 1015.75 1015.99 1016.23 1016.36 1016.46 1016.60 1016.69 1016.70 1016.74 1016.75 1016.76 1016.74 1016.72 1016.67 1016.61 1016.57 1016.50 1016.41 1016.31 1016.21 1015.94 1016.11 1016.11 1016.09 1016.07 1016.05 1016.04 1016.00 1015.98 1015.94 1015.93 1015.88 1015.84 1015.69 1015.63 1015.69 1015.71 1015.63 1015.46 1015.53
1014.04 1014.71 1015.35 1015.97 1016.19 1016.42 1016.64 1016.66 1016.77 1016.82 1016.85 1016.86 1016.85 1016.82 1016.79 1016.76 1016.74 1016.70 1016.66 1016.62 1016.54 1016.43 1016.35 1016.27 1016.19 1016.17 1016.15 1016.15 1016.13 1016.07 1016.03 1016.05 1016.05 1015.99 1015.86 1015.40 1014.78 1015.22 1015.49 1015.59 1015.63 1015.61 1015.56
1014.30 1014.74 1015.35 1016.23 1016.43 1016.66 1016.86 1016.95 1017.06 1017.10 1017.13 1017.10 1017.07 1017.01 1017.00 1016.97 1016.99 1016.95 1016.86 1016.82 1016.70 1016.58 1016.48 1016.40 1016.31 1016.23 1016.18 1016.14 1016.12 1016.08 1016.01 1015.98 1016.00 1016.04 1015.60 1014.59 1014.51 1014.97 1015.23 1015.45 1015.41 1015.40 1015.42
1015.17 1015.65 1016.31 1016.56 1016.81 1017.00 1017.22 1017.33 1017.37 1017.41 1017.41 1017.38 1017.34 1017.32 1017.27 1017.25 1017.26 1017.26 1017.23 1017.19 1017.10 1016.95 1016.71 1016.54 1016.37 1016.20 1016.11 1016.05 1015.99 1015.97 1015.96 1015.93 1015.94 1015.89 1015.11 1014.77 1014.87 1014.70 1015.12 1015.36 1015.29 1015.18 1015.25
1015.56 1016.07 1016.92 1017.10 1017.32 1017.37 1017.56 1017.66 1017.71 1017.74 1017.74 1017.73 1017.72 1017.71 1017.67 1017.66 1017.65 1017.64 1017.57 1017.48 1017.40 1017.25 1017.06 1016.80 1016.62 1016.41 1016.19 1016.01 1015.87 1015.77 1015.73 1015.77 1015.86 1015.28 1014.50 1014.57 1014.86 1014.94 1015.16 1015.33 1015.35 1015.24 1015.00
1015.76 1016.39 1017.11 1017.58 1017.76 1017.78 1017.90 1018.00 1018.04 1018.08 1018.12 1018.14 1018.15 1018.15 1018.12 1018.08 1018.04 1017.97 1017.88 1017.77 1017.60 1017.44 1017.24 1017.03 1016.78 1016.62 1016.42 1016.23 1015.97 1015.76 1015.63 1015.63 1015.55 1015.04 1014.74 1014.26 1014.34 1014.70 1015.10 1015.23 1015.21 1015.15 1015.06
1016.03 1016.85 1017.40 1017.99 1018.18 1018.23 1018.28 1018.38 1018.43 1018.44 1018.49 1018.49 1018.51 1018.53 1018.45 1018.40 1018.37 1018.25 1018.11 1017.95 1017.78 1017.57 1017.38 1017.13 1016.94 1016.75 1016.60 1016.39 1016.18 1015.97 1015.77 1015.59 1015.21 1014.73 1014.53 1014.50 1014.27 1014.50 1014.90 1015.04 1015.03 1014.98 1014.90
1016.55 1017.13 1017.30 1017.64 1018.40 1018.61 1018.74 1018.81 1018.81 1018.83 1018.88 1018.84 1018.81 1018.81 1018.72 1018.65 1018.49 1018.42 1018.23 1018.19 1017.98 1017.75 1017.54 1017.28 1017.02 1016.78 1016.58 1016.37 1016.11 1015.92 1015.70 1015.50 1015.21 1014.52 1014.23 1014.29 1014.29 1014.39 1014.67 1014.89 1014.87 1014.79 1014.71
1017.15 1017.41 1017.67 1017.64 1017.84 1018.03 1018.65 1019.16 1019.16 1019.18 1019.14 1019.04 1018.94 1018.87 1018.72 1018.56 1018.39 1018.46 1018.44 1018.42 1018.18 1017.93 1017.68 1017.36 1017.08 1016.81 1016.55 1016.28 1016.00 1015.84 1015.65 1015.35 1014.78 1014.13 1014.00 1014.14 1014.33 1014.37 1014.51 1014.56 1014.71 1014.71 1014.42
1017.74 1017.91 1017.96 1017.80 1017.98 1018.20 1018.48 1019.05 1019.17 1019.20 1018.98 1018.83 1018.78 1018.65 1018.33 1018.08 1018.22 1018.04 1018.61 1018.50 1018.24 1017.94 1017.74 1017.42 1017.12 1016.79 1016.39 1015.78 1015.55 1015.40 1015.23 1014.51 1013.69 1013.26 1013.40 1013.94 1014.24 1014.38 1014.45 1014.42 1014.44 1014.44 1014.29
1017.93 1018.35 1018.42 1018.35 1018.41 1018.41 1018.40 1018.40 1018.61 1018.67 1018.61 1018.55 1018.54 1018.41 1018.19 1018.16 1018.40 1018.33 1018.23 1018.15 1017.90 1017.75 1017.39 1017.15 1016.84 1016.43 1016.04 1015.57 1015.18 1015.11 1014.48 1014.04 1013.88 1013.69 1013.45 1014.16 1014.57 1014.61 1014.52 1014.43 1014.22 1014.20 1014.15
1018.11 1018.41 1018.67 1018.67 1018.72 1018.55 1018.69 1018.48 1018.51 1018.59 1018.58 1018.67 1018.79 1018.66 1018.42 1018.27 1018.26 1018.05 1017.91 1017.89 1017.78 1017.53 1017.18 1016.94 1016.57 1016.28 1016.23 1015.92 1015.56 1015.16 1014.87 1014.58 1014.23 1013.86 1013.88 1014.20 1014.66 1014.89 1014.63 1014.37 1014.20 1014.06 1013.93
1018.07 1018.56 1018.84 1018.85 1018.98 1018.99 1018.84 1018.73 1018.84 1018.90 1018.89 1018.97 1019.00 1019.04 1018.72 1018.58 1018.45 1018.34 1018.21 1018.16 1017.99 1017.81 1017.50 1017.26 1016.94 1016.62 1016.37 1015.98 1015.76 1015.44 1015.11 1014.81 1014.50 1014.21 1014.34 1014.86 1015.13 1015.20 1014.91 1014.64 1014.39 1014.16 1013.99
1018.00 1018.66 1018.89 1018.95 1019.06 1019.15 1019.15 1019.09 1019.03 1019.01 1019.08 1019.16 1019.28 1019.40 1019.28 1019.03 1018.89 1018.81 1018.54 1018.37 1018.22 1018.13 1017.82 1017.49 1017.17 1016.92 1016.57 1016.18 1015.80 1015.54 1015.28 1014.97 1014.83 1014.64 1014.53 1015.27 1015.32 1015.33 1015.01 1014.74 1014.50 1014.33 1014.17
1017.98 1018.50 1018.88 1019.08 1019.21 1019.33 1019.28 1019.43 1019.36 1019.29 1019.39 1019.45 1019.61 1019.69 1019.55 1019.48 1019.44 1019.19 1018.75 1018.65 1018.52 1018.35 1018.08 1017.77 1017.45 1017.22 1016.76 1016.28 1016.05 1015.55 1015.34 1015.12 1014.99 1014.87 1014.80 1015.59 1015.72 1015.95 1015.72 1015.36 1015.11 1014.86 1014.59
1017.72 1018.39 1018.78 1019.20 1019.34 1019.37 1019.54 1019.60 1019.60 1019.72 1019.57 1019.66 1019.70 1019.87 1019.80 1019.89 1019.71 1019.43 1019.20 1019.02 1018.83 1018.61 1018.32 1018.01 1017.60 1017.35 1017.01 1016.53 1016.16 1015.62 1015.44 1015.27 1015.14 1015.02 1015.03 1015.06 1016.02 1016.35 1016.55 1016.23 1015.96 1015.71 1015.39
1017.71 1018.31 1018.81 1019.15 1019.41 1019.43 1019.55 1019.73 1019.70 1019.81 1019.73 1019.71 1019.80 1019.82 1019.91 1020.01 1020.04 1019.64 1019.50 1019.33 1019.13 1018.84 1018.57 1018.35 1017.87 1017.54 1017.25 1016.85 1016.43 1015.86 1015.65 1015.44 1015.35 1015.29 1015.68 1015.95 1016.17 1016.51 1016.75 1016.80 1016.67 1016.38 1016.14
1017.68 1018.24 1018.77 1019.04 1019.17 1019.30 1019.51 1019.74 1019.88 1019.90 1019.72 1019.80 1019.78 1019.77 1020.11 1020.20 1020.15 1019.94 1019.86 1019.70 1019.38 1019.09 1018.75 1018.52 1018.17 1017.89 1017.47 1017.20 1016.67 1016.13 1016.06 1015.97 1015.96 1015.88 1016.62 1016.66 1016.92 1016.94 1016.79 1016.92 1017.01 1016.99 1016.86
1017.62 1018.12 1018.50 1018.96 1019.12 1019.29 1019.54 1019.69 1019.71 1019.77 1019.75 1019.74 1019.75 1019.82 1020.14 1020.09 1020.24 1020.18 1019.99 1019.83 1019.57 1019.31 1019.09 1018.75 1018.48 1018.17 1017.75 1017.62 1016.99 1016.40 1016.40 1016.38 1016.73 1017.05 1017.00 1017.03 1017.30 1017.38 1017.35 1017.24 1017.07 1017.05 1017.23
1017.74 1018.11 1018.47 1018.83 1019.08 1019.28 1019.37 1019.40 1019.51 1019.38 1019.59 1019.66 1019.72 1020.04 1020.16 1020.21 1020.28 1020.23 1020.03 1019.89 1019.75 1019.50 1019.46 1019.11 1018.80 1018.46 1017.96 1017.87 1017.13 1016.76 1016.37 1016.72 1016.84 1016.96 1016.94 1016.89 1016.87 1017.11 1017.41 1017.49 1017.48 1017.33 1017.17
1017.53 1017.98 1018.35 1018.59 1018.94 1019.21 1019.43 1019.35 1019.63 1019.60 1019.58 1019.72 1019.86 1020.04 1020.17 1020.16 1020.26 1020.23 1020.08 1020.05 1019.93 1019.77 1019.59 1019.46 1019.21 1018.92 1018.41 1018.22 1018.05 1017.27 1016.50 1016.43 1016.58 1016.76 1017.04 1017.14 1017.13 1017.18 1017.51 1017.90 1018.05 1018.05 1017.86
1017.17 1017.66 1018.08 1018.42 1018.87 1019.19 1019.28 1019.54 1019.70 1019.77 1019.97 1019.87 1019.80 1019.90 1019.94 1020.05 1020.11 1020.22 1020.10 1020.11 1020.05 1020.02 1019.75 1019.66 1019.46 1019.19 1018.94 1018.47 1018.39 1018.22 1017.59 1017.06 1017.02 1016.42 1016.92 1017.21 1017.41 1017.56 1017.81 1018.21 1018.38 1018.57 1018.47
1016.91 1017.43 1017.88 1018.45 1018.79 1018.93 1019.22 1019.35 1019.34 1019.39 1019.46 1019.35 1019.58 1019.62 1019.72 1019.82 1019.91 1019.96 1020.06 1020.00 1020.04 1020.00 1019.83 1019.69 1019.60 1019.51 1019.30 1018.93 1018.68 1018.45 1018.62 1018.45 1017.86 1017.13 1016.73 1016.68 1017.15 1017.44 1018.04 1018.33 1018.60 1018.67 1018.87
1016.79 1017.36 1017.93 1018.25 1018.52 1018.74 1019.03 1019.24 1019.27 1019.32 1019.34 1019.39 1019.51 1019.54 1019.49 1019.36 1019.56 1019.72 1019.80 1019.70 1019.78 1019.80 1019.70 1019.66 1019.64 1019.53 1019.42 1019.26 1018.93 1018.76 1018.64 1018.41 1018.19 1017.92 1017.30 1016.97 1017.08 1017.30 1017.83 1018.27 1018.66 1018.75 1018.94
1016.77 1017.30 1017.78 1018.00 1018.27 1018.58 1018.92 1019.17 1019.31 1019.34 1019.27 1019.21 1019.15 1019.04 1018.90 1018.82 1018.86 1019.13 1019.45 1019.51 1019.54 1019.58 1019.65 1019.59 1019.60 1019.68 1019.54 1019.39 1019.20 1018.92 1018.73 1018.66 1018.44 1018.54 1018.14 1017.74 1017.61 1017.40 1017.53 1018.04 1018.59 1018.83 1018.99
Thickness
5764 5755 5750 5747 5745 5743 5741 5740 5739 5738 5738 5737 5737 5736 5736 5735 5735 5734 5734 5733 5733 5733 5732 5732 5731 5731 5730 5730 5729 5728 5728 5727 5727 5726 5725 5725 5725 5725 5725 5724 5725 5729 5725
5765 5755 5747 5745 5743 5740 5739 5739 5737 5736 5737 5736 5735 5735 5734 5734 5733 5733 5732 5732 5731 5731 5730 5732 5729 5728 5727 5727 5726 5726 5725 5724 5723 5723 5723 5722 5723 5722 5721 5721 5721 5722 5721
5757 5751 5747 5742 5740 5738 5736 5736 5736 5735 5735 5735 5734 5734 5734 5733 5732 5732 5731 5730 5729 5728 5728 5727 5727 5726 5725 5724 5723 5722 5722 5721 5720 5719 5720 5722 5726 5722 5719 5717 5717 5717 5717
5754 5750 5745 5739 5737 5735 5733 5733 5733 5733 5733 5733 5733 5732 5732 5731 5730 5729 5728 5727 5726 5725 5724 5724 5723 5723 5722 5721 5720 5720 5719 5718 5717 5715 5717 5723 5723 5720 5718 5716 5715 5714 5714
5746 5742 5736 5735 5733 5732 5730 5730 5730 5730 5729 5729 5729 5729 5729 5728 5726 5725 5723 5721 5720 5720 5720 5720 5720 5720 5720 5720 5719 5718 5716 5715 5714 5713 5717 5718 5716 5717 5713 5711 5711 5712 5711
5740 5737 5731 5730 5728 5728 5727 5726 5726 5726 5726 5725 5725 5725 5724 5723 5721 5719 5717 5716 5715 5715 5715 5717 5717 5717 5717 5717 5717 5716 5715 5713 5711 5713 5717 5716 5713 5711 5708 5706 5705 5706 5708
5737 5732 5728 5724 5723 5724 5723 5723 5723 5722 5722 5721 5721 5720 5719 5717 5716 5714 5713 5713 5712 5712 5713 5713 5714 5714 5714 5714 5714 5714 5713 5711 5710 5712 5712 5714 5712 5709 5704 5702 5702 5701 5702
5733 5727 5723 5720 5719 5719 5719 5719 5719 5718 5718 5718 5717 5716 5715 5713 5711 5709 5709 5710 5710 5710 5710 5710 5710 5710 5709 5709 5709 5709 5709 5708 5708 5710 5709 5707 5708 5705 5701 5699 5698 5698 5698
5725 5722 5721 5719 5716 5715 5714 5714 5715 5715 5714 5714 5713 5712 5711 5709 5708 5706 5706 5706 5706 5707 5706 5707 5707 5707 5706 5706 5706 5705 5705 5705 5704 5706 5706 5704 5703 5701 5697 5693 5693 5693 5694
5717 5716 5715 5717 5716 5715 5712 5710 5710 5710 5710 5710 5710 5710 5709 5708 5706 5704 5703 5702 5702 5702 5702 5702 5702 5702 5702 5702 5702 5700 5700 5700 5701 5703 5702 5699 5697 5695 5692 5690 5687 5687 5689
5708 5709 5710 5712 5713 5712 5710 5708 5708 5708 5709 5710 5709 5709 5709 5707 5704 5704 5700 5699 5699 5699 5698 5697 5696 5696 5697 5700 5698 5696 5695 5697 5701 5702 5698 5694 5689 5686 5685 5683 5682 5682 5683
5701 5701 5703 5705 5707 5708 5708 5709 5707 5707 5707 5707 5706 5706 5705 5703 5700 5699 5698 5697 5697 5695 5695 5693 5691 5691 5691 5691 5691 5690 5691 5692 5690 5689 5688 5684 5678 5676 5676 5676 5676 5676 5676
5696 5697 5697 5700 5701 5704 5703 5705 5705 5705 5705 5703 5702 5700 5699 5698 5696 5695 5695 5693 5691 5690 5689 5687 5685 5683 5680 5678 5679 5679 5679 5678 5678 5678 5676 5674 5669 5665 5666 5668 5669 5669 5670
5693 5691 5693 5696 5696 5698 5699 5701 5700 5700 5700 5698 5697 5694 5694 5692 5690 5689 5687 5685 5683 5681 5679 5676 5672 5670 5669 5669 5667 5667 5668 5668 5668 5668 5666 5662 5659 5657 5658 5660 5662 5663 5664
5689 5687 5689 5692 5693 5693 5694 5695 5696 5696 5695 5693 5691 5687 5685 5684 5682 5680 5679 5677 5675 5672 5669 5665 5662 5660 5659 5659 5660 5659 5660 5660 5660 5660 5659 5655 5653 5652 5653 5654 5655 5657 5657
5686 5686 5687 5687 5688 5688 5690 5689 5689 5689 5688 5687 5684 5681 5679 5676 5673 5671 5671 5669 5666 5663 5659 5655 5652 5650 5650 5650 5649 5652 5653 5654 5654 5653 5653 5649 5647 5643 5644 5645 5646 5647 5648
5686 5685 5684 5683 5683 5685 5684 5683 5683 5682 5682 5681 5679 5674 5672 5668 5665 5664 5663 5660 5657 5654 5651 5648 5647 5645 5643 5643 5645 5647 5648 5649 5649 5649 5647 5645 5639 5635 5632 5634 5635 5636 5637
5683 5682 5681 5680 5680 5680 5679 5678 5678 5677 5676 5675 5672 5669 5666 5661 5658 5658 5655 5652 5650 5648 5646 5644 5643 5642 5641 5642 5642 5646 5645 5644 5643 5641 5638 5635 5633 5629 5626 5625 5625 5626 5627
5681 5680 5678 5678 5678 5677 5675 5674 5672 5671 5671 5668 5666 5663 5658 5653 5651 5650 5647 5645 5644 5642 5641 5639 5639 5637 5637 5636 5638 5641 5638 5636 5634 5633 5627 5626 5623 5622 5622 5619 5617 5616 5616
5678 5678 5677 5675 5674 5673 5670 5669 5668 5667 5666 5663 5660 5657 5651 5648 5644 5642 5640 5638 5638 5636 5634 5634 5633 5633 5632 5629 5632 5634 5632 5630 5625 5621 5620 5618 5615 5613 5612 5610 5610 5608 5605
5673 5673 5672 5671 5670 5668 5667 5667 5665 5664 5661 5658 5655 5649 5644 5641 5637 5635 5634 5631 5630 5629 5627 5626 5626 5626 5627 5624 5628 5628 5630 5624 5621 5617 5615 5613 5612 5609 5604 5603 5601 5600 5599
5671 5669 5669 5669 5666 5664 5662 5663 5659 5657 5655 5651 5647 5642 5638 5635 5631 5628 5626 5623 5621 5620 5619 5618 5617 5617 5619 5617 5614 5619 5622 5623 5619 5615 5609 5606 5604 5601 5596 5591 5588 5586 5585
5669 5668 5667 5665 5661 5659 5659 5654 5651 5648 5644 5642 5640 5636 5632 5629 5625 5621 5619 5615 5612 5610 5610 5609 5609 5608 5607 5609 5606 5605 5607 5608 5605 5611 5603 5597 5593 5589 5585 5579 5576 5572 5571
5668 5666 5664 5659 5657 5656 5651 5648 5646 5643 5639 5638 5633 5630 5626 5622 5618 5615 5611 5608 5604 5602 5601 5601 5600 5598 5598 5598 5597 5596 5591 5589 5591 5593 5597 5594 5586 5580 5573 5568 5563 5560 5557
5665 5661 5658 5655 5653 5650 5645 5641 5638 5635 5632 5629 5625 5622 5619 5616 5611 5607 5604 5601 5597 5595 5594 5592 5590 5589 5588 5587 5587 5584 5582 5580 5579 5577 5579 5579 5576 5571 5564 5556 5551 5547 5543
5659 5656 5652 5650 5647 5643 5637 5633 5629 5626 5623 5621 5619 5617 5615 5613 5608 5602 5596 5592 5589 5587 5585 5584 5582 5579 5578 5576 5575 5574 5571 5568 5565 5561 5561 5562 5559 5558 5554 5546 5537 5532 5528